Weather History for Spokane Felts, WA

Change the Weather History Date:

Saturday, April 20, 2013

  Actual Average Record
Temperature  
Mean Temperature 51 °F 48 °F  
Max Temperature 62 °F 60 °F 75 °F (2009)
Min Temperature 39 °F 36 °F 27 °F (2008)
Degree Days  
Heating Degree Days 14 17  
Month to date heating degree days 359 375  
Since 1 July heating degree days 5155 5696  
Cooling Degree Days 0 0  
Month to date cooling degree days 0 0  
Year to date cooling degree days 0 0  
Growing Degree Days 2 (Base 50)    
Moisture  
Dew Point 33 °F    
Average Humidity 52    
Maximum Humidity 76    
Minimum Humidity 28    
Precipitation  
Precipitation 0.00 in 0.04 in 0.15 in (2004)
Month to date precipitation 0.78 0.86  
Year to date precipitation 4.01 5.76  
Sea Level Pressure  
Sea Level Pressure 30.02 in    
Wind  
Wind Speed 13 mph (SW)    
Max Wind Speed 33 mph    
Max Gust Speed 39 mph    
Visibility 10 miles    
Events      
T = Trace of Precipitation, MM = Missing Value Source: NWS Daily Summary

Daily Weather History Graph

Daily Weather History Graph

Search for Another Location

Airport:

Trip Planner

Search our weather history database for the weather conditions in past years. The results will help you decide how hot, cold, wet, or windy it might be!

Date:

Astronomy

Apr. 20, 2013 Rise Set
Actual Time 5:50 AM PDT 7:46 PM PDT
Civil Twilight 5:17 AM PDT 8:19 PM PDT
Nautical Twilight 4:36 AM PDT 9:00 PM PDT
Astronomical Twilight 3:51 AM PDT 9:45 PM PDT
Moon 2:13 PM PDT (4/20) 3:05 AM PDT (4/20)
Length of Visible Light 15h 02m
Length of Day
13h 56m
Waxing Gibbous, 72% of the Moon is Illuminated
Apr 20
Waxing Gibbous
Apr 25
Full
May 2
Last Quarter
May 9
New
May 17
First Quarter

Hourly Weather History & Observations

Time (PDT) Temp. Windchill Dew Point Humidity Pressure Visibility Wind Dir Wind Speed Gust Speed Precip Events Conditions
12:53 AM 48.0 °F - 37.0 °F 66% 29.96 in 10.0 mi WSW 6.9 mph - N/A   Overcast
1:53 AM 45.0 °F 39.3 °F 36.0 °F 71% 29.98 in 10.0 mi SW 11.5 mph - N/A   Mostly Cloudy
2:53 AM 45.0 °F 39.7 °F 35.1 °F 68% 29.99 in 10.0 mi SW 10.4 mph - N/A   Mostly Cloudy
3:53 AM 43.0 °F 39.5 °F 34.0 °F 71% 30.00 in 10.0 mi SW 5.8 mph - N/A   Clear
4:53 AM 42.1 °F 37.1 °F 34.0 °F 73% 30.03 in 10.0 mi SSW 8.1 mph - N/A   Mostly Cloudy
5:53 AM 41.0 °F 37.1 °F 34.0 °F 76% 30.05 in 10.0 mi SSW 5.8 mph - N/A   Scattered Clouds
6:53 AM 43.0 °F 40.3 °F 35.1 °F 74% 30.06 in 10.0 mi South 4.6 mph - N/A   Mostly Cloudy
7:53 AM 43.0 °F 36.4 °F 35.1 °F 74% 30.07 in 10.0 mi South 12.7 mph - N/A   Mostly Cloudy
8:53 AM 45.0 °F 40.1 °F 36.0 °F 71% 30.09 in 10.0 mi SSW 9.2 mph - N/A   Overcast
9:53 AM 48.0 °F - 37.0 °F 66% 30.08 in 10.0 mi SSW 11.5 mph - N/A   Overcast
10:53 AM 53.1 °F - 37.0 °F 55% 30.08 in 10.0 mi SSW 13.8 mph - N/A   Mostly Cloudy
11:53 AM 55.9 °F - 37.0 °F 49% 30.06 in 10.0 mi WSW 16.1 mph 26.5 mph N/A   Scattered Clouds
12:53 PM 57.9 °F - 36.0 °F 44% 30.03 in 10.0 mi SW 20.7 mph 27.6 mph N/A   Mostly Cloudy
1:53 PM 57.9 °F - 34.0 °F 41% 30.01 in 10.0 mi SW 21.9 mph 29.9 mph N/A   Mostly Cloudy
2:53 PM 61.0 °F - 34.0 °F 36% 29.99 in 10.0 mi SSW 23.0 mph 28.8 mph N/A   Overcast
3:53 PM 62.1 °F - 32.0 °F 32% 29.98 in 10.0 mi SW 25.3 mph 36.8 mph N/A   Overcast
4:53 PM 61.0 °F - 30.9 °F 32% 29.97 in 10.0 mi WSW 26.5 mph 34.5 mph N/A   Mostly Cloudy
5:53 PM 61.0 °F - 30.9 °F 32% 29.97 in 10.0 mi SW 23.0 mph 29.9 mph N/A   Partly Cloudy
6:53 PM 59.0 °F - 27.0 °F 29% 29.97 in 10.0 mi WSW 17.3 mph 27.6 mph N/A   Partly Cloudy
7:53 PM 55.9 °F - 27.0 °F 33% 29.98 in 10.0 mi WSW 11.5 mph - N/A   Clear
8:53 PM 54.0 °F - 28.0 °F 37% 30.01 in 10.0 mi WSW 11.5 mph 24.2 mph N/A   Clear
9:53 PM 52.0 °F - 28.9 °F 41% 30.02 in 10.0 mi WSW 13.8 mph 19.6 mph N/A   Overcast
10:53 PM 50.0 °F - 28.9 °F 44% 30.03 in 10.0 mi WSW 6.9 mph - N/A   Clear
11:53 PM 46.0 °F 43.9 °F 30.0 °F 54% 30.04 in 10.0 mi WSW 4.6 mph - N/A   Clear